www.pogodaiklimat.ru

Погода и климат >> Архив погоды >> Индия >> Digha


ПОГОДА в Digha

  • Прогноз погоды в Digha
  • Монитор погоды в Digha
  • Климат города

АРХИВ ПОГОДЫ в Digha

Время (UTC), дата Ветер
(напр.,м/с)
 
Видим.   Явления Облачность Т
(С)
Тd
(С)
f
(%)
Тe
(С)
Тes
(С)
Комфортность P
(гПа)
Po
(гПа)
Тmin
(С)
Tmax
(С)
R
(мм)
R24
(мм)
S
(см)
18 10.12 штиль 0 4000 м ясно +17.2 +14.0 81 +17 +17 1013.9 1014.0
21 10.12 штиль 0 4000 м ясно +16.4 +13.6 84 +16 +16 1013.2 1013.0
00 11.12 С 1 4000 м ясно +15.0 +12.5 85 +15 +15 1012.2 1012.0
03 11.12 С 1 4000 м ясно +17.4 +13.1 76 +18 +23 1015.2 1015.0 +13.4
06 11.12 С 1 4000 м ясно +25.6 +14.6 51 +28 +41 жарко 1014.1 1014.0
09 11.12 СВ 1 4000 м ясно +27.6 +16.7 51 +31 +38 душно 1011.8 1012.0
12 11.12 штиль 0 4000 м ясно +23.4 +18.0 72 +29 +29 душно 1012.0 1012.0 +28.0
15 11.12 С 1 4000 м ясно +20.0 +16.4 80 +24 +24 комфорт 1013.8 1014.0
18 11.12 С 1 4000 м ясно +18.0 +15.3 84 +20 +20 1014.2 1014.0
21 11.12 штиль 0 4000 м ясно +16.8 +14.7 87 +17 +17 1014.0 1014.0
00 12.12 С 1 4000 м ясно +15.8 +14.0 89 +16 +16 1013.9 1014.0
03 12.12 С 1 4000 м ясно +18.0 +14.9 82 +20 +25 1016.5 1017.0 +14.9
06 12.12 С 2 4000 м ясно +25.4 +15.5 54 +28 +40 жарко 1015.9 1016.0
09 12.12 С 1 4000 м ясно +28.4 +18.1 54 +33 +39 очень
душно
1012.6 1013.0
12 12.12 С 1 4000 м ясно +24.0 +20.0 78 +29 +29 душно 1012.8 1013.0 +29.5
15 12.12 штиль 0 4000 м ясно +20.8 +18.9 89 +25 +25 комфорт 1015.0 1015.0
18 12.12 штиль 0 4000 м ясно +19.0 +16.7 87 +20 +20 1015.4 1015.0
21 12.12 штиль 0 4000 м ясно +18.0 +16.0 88 +18 +18 1015.2 1015.0
00 13.12 С 1 4000 м ясно +17.0 +15.3 90 +18 +18 1015.0 1015.0
03 13.12 С 1 4000 м ясно +18.6 +15.9 84 +21 +25 комфорт 1017.5 1018.0 +15.6
06 13.12 С 1 4000 м ясно +26.2 +16.1 54 +30 +42 душно 1016.6 1017.0
09 13.12 С 1 4000 м ясно +28.8 +15.9 46 +32 +38 душно 1013.8 1014.0
12 13.12 штиль 0 4000 м ясно +24.8 +18.9 70 +30 +30 душно 1014.3 1014.0 +28.8
15 13.12 С 1 4000 м ясно +22.4 +17.2 72 +27 +27 душно 1016.4 1016.0
18 13.12 С 1 4000 м ясно +20.6 +16.3 76 +25 +25 комфорт 1016.3 1016.0
21 13.12 штиль 0 4000 м ясно +19.6 +15.9 79 +21 +21 комфорт 1016.2 1016.0
00 14.12 С 1 4000 м ясно +18.8 +15.4 81 +21 +21 комфорт 1016.0 1016.0
03 14.12 С 1 4000 м 4/0 2000 м
[Ac trans]
+20.4 +15.7 74 +24 +28 комфорт 1018.2 1018.0 +17.3
06 14.12 С 2 4000 м ясно +27.0 +16.4 52 +30 +41 душно 1017.3 1017.0
09 14.12 С 2 4000 м 3/0 2000 м
[Ac trans]
+28.4 +15.4 45 +31 +36 душно 1014.8 1015.0
12 14.12 штиль 0 4000 м ясно +24.4 +18.1 68 +29 +29 душно 1016.0 1016.0 +28.6
15 14.12 С 1 4000 м ясно +20.8 +16.9 78 +26 +26 душно 1017.6 1018.0
18 14.12 штиль 0 4000 м ясно +19.2 +15.9 81 +21 +21 комфорт 1017.4 1017.0
21 14.12 С 1 4000 м ясно +18.2 +15.1 82 +20 +20 1017.1 1017.0
00 15.12 С 2 4000 м 3/0
[Ci fib]
+17.4 +13.1 76 +18 +18 1016.7 1017.0
03 15.12 С 2 4000 м 6/5 600 м
[Sc Ac trans]
+18.4 +13.5 73 +19 +21 1019.9 1020.0 +16.2
06 15.12 С 3 4000 м 9/4 600 м
[Sc Ac As]
+23.0 +12.5 52 +26 +28 жарко 1018.3 1018.0
09 15.12 С 2 4000 м 9/4 600 м
[Sc Ac trans]
+25.2 +11.5 42 +27 +28 жарко 1016.3 1016.0
12 15.12 С 1 4000 м 9/3 600 м
[Sc Ac trans]
+23.0 +15.3 62 +27 +27 душно 1017.3 1017.0 +25.5
15 15.12 С 1 4000 м 4/0 2000 м
[Ac trans]
+20.6 +15.2 71 +25 +25 комфорт 1019.0 1019.0
18 15.12 С 1 4000 м 4/0 2000 м
[Ac trans]
+20.0 +14.5 71 +24 +24 комфорт 1018.7 1019.0
21 15.12 С 1 4000 м 4/0 2000 м
[Ac trans]
+19.2 +13.2 68 +22 +22 комфорт 1017.8 1018.0
00 16.12 С 1 4000 м 4/0 2000 м
[Ac trans]
+18.4 +11.5 64 +20 +20 1017.0 1017.0
03 16.12 С 2 4000 м 5/0 2000 м
[Ac trans]
+19.8 +11.1 57 +22 +25 комфорт 1019.8 1020.0 +17.9
06 16.12 С 1 4000 м 6/0 2000 м
[Ac trans]
+23.2 +10.1 43 +25 +33 комфорт 1018.7 1019.0
09 16.12 С 2 4000 м 8/1 600 м
[Sc Ac trans]
+23.4 +12.6 51 +26 +29 жарко 1016.0 1016.0
12 16.12 С 1 4000 м {морось} 8/3 600 м
[Sc Ac trans]
+22.0 +14.2 61 +25 +25 комфорт 1016.4 1016.0 +24.0 0.0
15 16.12 штиль 0 4000 м слабая морось 9/5 600 м
[Sc Ac trans]
+21.0 +15.3 70 +24 +24 комфорт 1017.9 1018.0 0.0
18 16.12 С 2 4000 м {дождь, морось} 8/4 600 м
[Sc diur, vesp Ac trans]
+20.6 +12.9 61 +23 +23 комфорт 1017.0 1017.0 0.1
21 16.12 С 2 4000 м {дождь} 9/5 600 м
[Sc Ac trans]
+19.8 +13.1 65 +22 +22 комфорт 1016.0 1016.0 0.6
00 17.12 С 2 4000 м {дождь} 8/4 600 м
[Sc Ac trans]
+19.2 +13.6 70 +21 +21 комфорт 1015.1 1015.0 0.6
03 17.12 С 2 4000 м 9/5 600 м
[Sc Ac trans]
+19.0 +14.9 77 +21 +22 комфорт 1018.2 1018.0 +17.9 0.6
06 17.12 С 2 4000 м 9/5 600 м
[Sc Ac trans]
+21.8 +16.9 74 +26 +29 душно 1017.1 1017.0
09 17.12 С 2 4000 м в посл. час дождь 9/3 600 м
[Sc Ac As]
+20.4 +17.1 81 +24 +26 комфорт 1014.1 1014.0 0.7
12 17.12 С 4 4000 м слабый дождь 9/5 600 м
[Sc Ac As]
+18.4 +15.7 84 +19 +19 1014.9 1015.0 +22.0 0.9
15 17.12 С 3 4000 м {дождь} 9/5 600 м
[Sc Ac As]
+17.4 +16.4 94 +18 +18 1016.7 1017.0 1

 

Местоположение метеостанции Digha (West Bengal, Индия): широта 21.62 долгота 87.50 высота над уровнем моря 6 м.

В архиве по умолчанию представлена погода в Digha за последнюю неделю. Архивные данные за месяц целиком и за предыдущие месяцы, начиная с января 2011 года, Вы можете получить, выбрав интересующий диапазон дат из раскрывающегося списка и нажав кнопку "Ввод!".


*Определитесь, кто Вы:
робот инопланетянин человек

Внимание! Время в таблицах - всемирное. Для получения местного времени необходимо прибавить поправку, которая в Digha равна 5.5 ч.

Смотрите также архив погоды в соседних городах и на ближайших метеорологических станциях:

Погода в Contai (West Bengal, Индия) (31 км)
Погода в Balasore (Orissa, Индия) (60 км)
Погода в Haldia (West Bengal, Индия) (73 км)
Погода в Baripada (Orissa, Индия) (83 км)
Погода в Midnapore (West Bengal, Индия) (91 км)
Погода в Diamond Harbour (West Bengal, Индия) (95 км)
Погода в Uluberia (West Bengal, Индия) (108 км)
Погода в Chandbali (Orissa, Индия) (123 км)
Погода в Kolkata (West Bengal, Индия) (133 км)
Погода в Canning (West Bengal, Индия) (140 км)

Пояснения к столбцам:

Ветер - указаны скорость ветра в м/с - средняя за 10 мин, порывы в срок и между сроками (в фигурных скобках) и направление, откуда дует ветер: С - северный, СВ - северо-восточный, В - восточный, ЮВ - юго-восточный, Ю - южный, ЮЗ - юго-западный, З - западный, СЗ - северо-западный.
Видимость - горизонтальная дальность видимости в метрах или километрах. При видимости от 1 до 10 км при отсутствии осадков обычно наблюдается дымка, при ухудшении видимости до 1 км и менее - туман. В сухую погоду видимость может ухудшаться дымом, пылью или мглою.
Явления - указаны атмосферные явления, наблюдавшиеся в срок или в последний час перед сроком; фигурными скобками обозначены явления, наблюдавшиеся между сроками (за 1-3 часа до срока); квадратными скобками обозначены град или гололедные отложения с указанием их диаметра в мм.
Облачность - указаны через наклонную черту общая и нижняя облачность в баллах и высота нижней границы облаков в метрах; квадратными скобками обозначены формы облаков: Ci - перистые, Cs - перисто-слоистые, Cc - перисто-кучевые, Ac - высококучевые, As - высокослоистые, Sc - слоисто-кучевые, Ns - слоисто-дождевые, Cu - кучевые, Cb - кучево-дождевые. Подробнее классификацию облаков см. в Атласе облаков (PDF).
T - Температура воздуха - температура, измеренная на высоте 2 м над землей.
Td - Температура точки росы - температура, при понижении до которой содержащийся в воздухе водяной пар достигнет насыщения.
f - Относительная влажность воздуха - влажноcть воздуха, измеренная на высоте 2 м над землей.
Te - Эффективная температура - температура, которую ощущает одетый по сезону человек в тени. Характеристика душности погоды. При расчете учитывается влияние влажности воздуха и скорости ветра на теплоощущения человека.
Tes - Эффективная температура на солнце - температура, которую ощущает человек, с поправкой на солнечный нагрев. Характеристика знойности погоды. Зависит от высоты солнца над горизонтом, облачности и скорости ветра. Ночью, в пасмурную погоду, а также при ветре 12 м/с и более поправка равна нулю.
P - Атмосферное давление - приведенное к уровню моря атмосферное давление.
Po - Атмосферное давление - измеренное на уровне метеостанции атмосферное давление.
Tmin - Минимальная температура - минимум температуры воздуха на высоте 2 м над землей.
Tmax - Максимальная температура - максимум температуры воздуха на высоте 2 м над землей.
R - Количество осадков - Количество выпавших осадков за период времени, мм. При наведении курсора мыши на число - период времени, за который выпало указанное количество осадков.
R24 - Количество осадков - Количество выпавших осадков за 24 часа, мм.
S - Снежный покров - Высота снежного покрова, см. При наведении курсора мыши на число - состояние снежного покрова и степень покрытия местности в баллах.